This is the latest recevied weather packets stored in our database for station/object DB0MI. If no packets are shown the sender has not sent any weather packets the latest 10 day(s).
| Time | Temp. | Humidity | Pressure | Rain* | Wind** | Luminosity | Snow |
|---|---|---|---|---|---|---|---|
| 1777730514 | 25.56° C | 33% | 1019.9 hPa | 0 mm | - | - | - |
| 1777729914 | 25° C | 33% | 1020 hPa | 0 mm | - | - | - |
| 1777729314 | 25° C | 33% | 1020.1 hPa | 0 mm | - | - | - |
| 1777728714 | 25° C | 35% | 1020.1 hPa | 0 mm | - | - | - |
| 1777728114 | 24.44° C | 36% | 1020.3 hPa | 0 mm | - | - | - |
| 1777727514 | 23.89° C | 36% | 1020.5 hPa | 0 mm | - | - | - |
| 1777726914 | 23.89° C | 37% | 1020.7 hPa | 0 mm | - | - | - |
| 1777726314 | 23.33° C | 37% | 1020.7 hPa | 0 mm | - | - | - |
| 1777725714 | 23.33° C | 34% | 1020.6 hPa | 0 mm | - | - | - |
| 1777725115 | 23.89° C | 36% | 1020.8 hPa | 0 mm | - | - | - |
| 1777724514 | 23.89° C | 36% | 1020.9 hPa | 0 mm | - | - | - |
| 1777723914 | 24.44° C | 34% | 1020.9 hPa | 0 mm | - | - | - |
| 1777723314 | 24.44° C | 35% | 1021 hPa | 0 mm | - | - | - |
| 1777722714 | 25° C | 35% | 1021.1 hPa | 0 mm | - | - | - |
| 1777722114 | 25° C | 37% | 1021.1 hPa | 0 mm | - | - | - |
| 1777721514 | 25° C | 36% | 1021.4 hPa | 0 mm | - | - | - |
| 1777720914 | 25.56° C | 35% | 1021.5 hPa | 0 mm | - | - | - |
| 1777720314 | 26.67° C | 36% | 1021.5 hPa | 0 mm | - | - | - |
| 1777719714 | 26.11° C | 37% | 1021.6 hPa | 0 mm | - | - | - |
| 1777719114 | 26.11° C | 36% | 1021.7 hPa | 0 mm | - | - | - |
| 1777718514 | 26.11° C | 36% | 1021.7 hPa | 0 mm | - | - | - |
| 1777717914 | 26.11° C | 37% | 1021.8 hPa | 0 mm | - | - | - |
| 1777717315 | 25.56° C | 36% | 1021.9 hPa | 0 mm | - | - | - |
| 1777716715 | 26.67° C | 36% | 1022 hPa | 0 mm | - | - | - |
| 1777716115 | 25.56° C | 37% | 1022 hPa | 0 mm | - | - | - |
* Rain latest hour (hover to see other rain measurements)
** Current wind speed in m/s (hover to see current wind gust speed)